www.pogodaiklimat.ru

Погода и климат >> Архив погоды >> Гондурас >> Yoro


ПОГОДА в Yoro

  • Прогноз погоды в Yoro
  • Монитор погоды в Yoro
  • Климат города

АРХИВ ПОГОДЫ в Yoro

Время (UTC), дата Ветер
(напр.,м/с)
 
Видим.   Явления Облачность Т
(С)
Тd
(С)
f
(%)
Тe
(С)
Тes
(С)
Комфортность P
(гПа)
Po
(гПа)
Тmin
(С)
Tmax
(С)
R
(мм)
R24
(мм)
S
(см)
12 13.09 Ю 1 10 км дымка 8/4 600 м
[Sc Ac As]
+20.0 +19.7 98 +25 +25 комфорт 1014.7 938.8 +19.8 +29.4
15 13.09 Ю 1 10 км мгла {туман} 4/4 600 м
[Sc diur, vesp]
+25.0 +22.0 83 +32 +40 очень
душно
1013.9 939.1
18 13.09 Ю 2 10 км мгла {туман} 5/5 750 м
[Cu med, cong]
+29.8 +21.3 60 +37 +48 очень
душно
1013.1 938.6 +19.8 +29.8
21 13.09 З 2 10 км мгла {туман} 5/5 750 м
[Cu med, cong]
+32.6 +19.1 45 +38 +43 очень
душно
1009.7 937.2
00 14.09 З 2 10 км мгла {туман} 8/4 700 м
[Cu med, cong Ac trans]
+27.4 +21.0 68 +34 +34 очень
душно
1011.5 937.0 +19.8 +32.6
15 14.09 З 2 10 км мгла {туман} 4/4 600 м
[Sc diur, vesp]
+24.8 +21.5 82 +32 +38 очень
душно
1013.9 939.1
18 14.09 З 3 10 км мгла {туман} 5/5 750 м
[Cu med, cong]
+29.2 +21.5 63 +37 +46 очень
душно
1013.1 938.6 +20.0 +29.2
21 14.09 В 2 10 км мгла {туман} 5/5 750 м
[Cu med, cong]
+31.6 +19.6 49 +37 +42 очень
душно
1008.9 936.3
00 15.09 З 3 10 км мгла {туман} 5/5 700 м
[Cu med, cong]
+26.4 +20.8 71 +33 +33 очень
душно
1010.7 937.1 +20.0 +31.8
15 15.09 С 2 10 км мгла {туман} 8/4 600 м
[Sc diur, vesp Ac trans]
+25.8 +22.2 81 +34 +38 очень
душно
1013.6 939.4
18 15.09 В 2 10 км мгла {туман} 8/5 750 м
[Cu med, cong Ci fib]
+29.2 +21.5 63 +37 +46 очень
душно
1013.1 938.6 +20.8 +29.2
21 15.09 СВ 3 10 км мгла {туман} 8/5 750 м
[Cu med, cong Ac As]
+29.4 +21.1 61 +37 +39 очень
душно
1010.5 937.2
00 16.09 СВ 2 10 км мгла {дождь, туман} 8/4 750 м
[Cu med, cong Ac As]
+24.4 +21.9 86 +31 +31 очень
душно
1011.2 937.1 +20.8 +30.4 6
12 16.09 штиль 0 10 км дымка 8/4 600 м
[Sc Ac trans]
+21.2 +20.9 98 +27 +27 душно 1014.1 938.9 +20.6 +30.4
15 16.09 З 2 10 км мгла {туман} 8/4 700 м
[Sc diur, vesp Ac trans]
+24.6 +21.4 82 +31 +35 очень
душно
1013.3 938.4
18 16.09 З 3 10 км мгла {туман} 5/5 750 м
[Cu med, cong]
+29.2 +21.8 64 +37 +47 очень
душно
1011.0 937.4 +20.6 +29.2
21 16.09 СВ 3 10 км мгла {туман} 5/5 750 м
[Cu med, cong]
+32.0 +21.2 53 +40 +44 очень
душно
1008.1 935.9
00 17.09 В 2 10 км мгла {туман} 5/5 700 м
[Cu med, cong]
+28.0 +20.8 65 +35 +35 очень
душно
1010.1 936.4 +20.6 +32.0
12 17.09 В 1 10 км дымка 4/4 600 м
[Sc]
+18.4 +18.1 98 +20 +20 1014.9 938.4 +17.8 +32.0
15 17.09 З 2 10 км мгла {туман} 4/4 600 м
[Sc diur, vesp]
+24.8 +20.6 77 +31 +38 очень
душно
1013.3 938.5
18 17.09 З 3 10 км мгла {туман} 4/4 750 м
[Cu med, cong]
+30.2 +21.2 59 +38 +49 очень
душно
1010.7 937.4 +17.8 +30.2
21 17.09 В 2 10 км мгла {туман} 5/5 750 м
[Cu med, cong]
+31.6 +21.2 54 +39 +44 очень
душно
1008.4 935.4
12 18.09 штиль 0 10 км дымка 4/4 600 м
[Sc]
+18.0 +17.7 98 +18 +18 1014.9 938.4 +17.5 +31.8
15 18.09 З 2 10 км мгла {туман} 4/4 600 м
[Sc diur, vesp]
+24.0 +20.9 83 +30 +38 очень
душно
1013.3 938.2
18 18.09 В 3 10 км мгла {туман} 5/5 750 м
[Cu med, cong]
+30.0 +20.9 58 +37 +47 очень
душно
1010.7 937.4 +17.5 +30.0
21 18.09 В 3 10 км мгла {туман} 8/4 750 м
[Cu med, cong Ac trans]
+31.0 +20.5 54 +38 +41 очень
душно
1008.3 935.2
00 19.09 В 1 10 км мгла {туман} 5/5 720 м
[Cb cap]
+27.5 +21.2 69 +35 +35 очень
душно
1010.4 936.1 +17.5 +31.6
12 19.09 штиль 0 10 км дымка 4/4 600 м
[Sc]
+19.0 +18.7 98 +21 +21 комфорт 1014.7 938.2 +18.5 +31.6
15 19.09 штиль 0 10 км мгла {туман} 4/4 700 м
[Sc diur, vesp]
+25.4 +21.2 78 +32 +41 очень
душно
1012.0 937.8
21 19.09 З 3 10 км мгла {туман} 5/5 750 м
[Cu med, cong]
+30.8 +21.2 57 +39 +43 очень
душно
1008.6 935.2
00 20.09 В 2 10 км мгла {туман} 6/6 720 м
[Cb cap]
+28.0 +20.8 65 +35 +35 очень
душно
1010.4 936.0 +18.5 +31.4

 

Местоположение метеостанции Yoro (Гондурас): широта 15.17 долгота -87.11 высота над уровнем моря 670 м.

В архиве по умолчанию представлена погода в Yoro за последнюю неделю. Архивные данные за месяц целиком и за предыдущие месяцы, начиная с января 2011 года, Вы можете получить, выбрав интересующий диапазон дат из раскрывающегося списка и нажав кнопку "Ввод!".


*Определитесь, кто Вы:
робот инопланетянин человек

Внимание! Время в таблицах - всемирное. Для получения местного времени необходимо прибавить поправку, которая в Yoro равна -6 ч.

Смотрите также архив погоды в соседних городах и на ближайших метеорологических станциях:

Погода в La Ceiba (Гондурас) (68 км)
Погода в Tela (Гондурас) (73 км)
Погода в La Mesa (Гондурас) (93 км)
Погода в Tegucigalpa (Гондурас) (125 км)
Погода в Catacamas (Гондурас) (130 км)
Погода в Roatan (Гондурас) (143 км)
Погода в La Esperanza (Гондурас) (147 км)
Погода в Trujillo (Гондурас) (152 км)
Погода в Puerto Barrios (Гватемала) (171 км)
Погода в Santa Rosa De Copan (Гондурас) (185 км)

Пояснения к столбцам:

Ветер - указаны скорость ветра в м/с - средняя за 10 мин, порывы в срок и между сроками (в фигурных скобках) и направление, откуда дует ветер: С - северный, СВ - северо-восточный, В - восточный, ЮВ - юго-восточный, Ю - южный, ЮЗ - юго-западный, З - западный, СЗ - северо-западный.
Видимость - горизонтальная дальность видимости в метрах или километрах. При видимости от 1 до 10 км при отсутствии осадков обычно наблюдается дымка, при ухудшении видимости до 1 км и менее - туман. В сухую погоду видимость может ухудшаться дымом, пылью или мглою.
Явления - указаны атмосферные явления, наблюдавшиеся в срок или в последний час перед сроком; фигурными скобками обозначены явления, наблюдавшиеся между сроками (за 1-3 часа до срока); квадратными скобками обозначены град или гололедные отложения с указанием их диаметра в мм.
Облачность - указаны через наклонную черту общая и нижняя облачность в баллах и высота нижней границы облаков в метрах; квадратными скобками обозначены формы облаков: Ci - перистые, Cs - перисто-слоистые, Cc - перисто-кучевые, Ac - высококучевые, As - высокослоистые, Sc - слоисто-кучевые, Ns - слоисто-дождевые, Cu - кучевые, Cb - кучево-дождевые. Подробнее классификацию облаков см. в Атласе облаков (PDF).
T - Температура воздуха - температура, измеренная на высоте 2 м над землей.
Td - Температура точки росы - температура, при понижении до которой содержащийся в воздухе водяной пар достигнет насыщения.
f - Относительная влажность воздуха - влажноcть воздуха, измеренная на высоте 2 м над землей.
Te - Эффективная температура - температура, которую ощущает одетый по сезону человек в тени. Характеристика душности погоды. При расчете учитывается влияние влажности воздуха и скорости ветра на теплоощущения человека.
Tes - Эффективная температура на солнце - температура, которую ощущает человек, с поправкой на солнечный нагрев. Характеристика знойности погоды. Зависит от высоты солнца над горизонтом, облачности и скорости ветра. Ночью, в пасмурную погоду, а также при ветре 12 м/с и более поправка равна нулю.
P - Атмосферное давление - приведенное к уровню моря атмосферное давление.
Po - Атмосферное давление - измеренное на уровне метеостанции атмосферное давление.
Tmin - Минимальная температура - минимум температуры воздуха на высоте 2 м над землей.
Tmax - Максимальная температура - максимум температуры воздуха на высоте 2 м над землей.
R - Количество осадков - Количество выпавших осадков за период времени, мм. При наведении курсора мыши на число - период времени, за который выпало указанное количество осадков.
R24 - Количество осадков - Количество выпавших осадков за 24 часа, мм.
S - Снежный покров - Высота снежного покрова, см. При наведении курсора мыши на число - состояние снежного покрова и степень покрытия местности в баллах.